Wind_Speed
43 44 44 43 44 44 43 43 43 43 42 42 41 40 39 38 38 37 37 36 36 36 37 37 36 36 37 37 37 37 36 36 37 37 37 37 37 38 39 38 38 39 39
43 43 42 43 43 43 43 43 43 43 42 42 42 42 40 40 39 38 37 37 38 37 37 37 36 37 37 38 38 39 39 39 38 38 38 39 39 39 39 39 40 40 40
41 41 41 42 42 42 42 43 42 42 42 43 43 42 41 41 40 39 39 38 39 39 38 38 38 38 38 39 40 40 40 40 40 40 40 41 41 41 40 40 41 41 41
39 40 40 40 40 40 41 42 42 43 42 41 41 43 42 41 41 41 40 40 40 39 40 40 40 40 40 40 41 41 41 41 41 41 42 42 43 43 43 43 43 43 43
37 38 38 38 38 38 39 40 41 42 42 41 41 42 42 42 42 42 41 40 40 41 41 42 42 41 40 41 42 42 42 42 43 43 42 43 44 44 45 44 44 44 44
35 35 35 35 36 37 38 40 40 42 42 42 42 41 42 42 42 42 43 43 41 41 41 42 42 41 41 42 43 43 44 44 43 44 43 44 44 45 46 46 46 45 44
33 34 34 34 35 36 37 38 39 42 42 42 42 41 41 41 41 42 43 44 43 42 43 43 43 43 43 43 44 44 44 44 44 44 45 45 45 45 45 46 45 44 44
31 32 33 33 34 36 37 37 39 41 41 41 42 42 42 42 41 42 43 43 44 44 43 44 45 46 45 44 44 44 44 44 45 46 47 47 46 46 46 46 45 45 44
31 31 32 32 33 35 37 37 38 39 40 41 42 43 42 42 42 42 43 44 44 44 43 44 44 44 45 45 46 45 46 47 46 46 46 47 46 46 47 46 46 46 46
30 30 31 32 33 34 35 37 38 38 39 41 42 43 43 42 43 44 44 45 44 44 44 45 45 45 45 46 47 48 47 47 47 47 47 47 47 47 47 47 47 48 48
29 30 31 32 33 34 35 37 38 39 39 40 41 42 42 41 42 43 44 44 44 44 44 44 45 45 45 46 46 47 46 46 45 45 45 45 46 46 47 48 48 49 49
28 29 30 32 33 34 35 36 37 38 38 39 40 41 41 42 42 42 42 43 43 43 43 43 44 43 43 43 45 45 45 45 45 45 45 46 47 47 48 48 48 48 47
27 29 30 32 34 35 35 36 37 37 37 37 38 39 38 39 39 40 41 41 42 42 42 41 41 41 41 41 43 44 43 44 44 44 45 45 47 47 48 47 47 46 45
28 30 32 33 34 35 36 35 35 35 36 35 36 37 37 38 38 39 39 40 41 42 41 41 41 41 41 40 41 42 43 44 44 44 45 46 47 47 47 45 45 44 44
29 30 32 34 33 34 34 34 35 35 35 35 35 36 35 37 38 38 38 40 40 41 41 40 40 40 40 40 40 42 43 43 44 45 45 45 45 44 44 44 43 43 43
28 29 31 33 34 34 34 34 34 35 35 35 35 36 36 36 36 37 38 39 39 39 39 39 39 39 40 40 40 40 41 42 42 43 43 44 44 44 44 43 43 43 43
28 29 30 32 33 32 33 33 34 34 34 35 35 36 36 36 37 37 37 37 37 37 37 37 37 38 39 40 39 39 41 42 42 42 42 42 43 44 44 43 42 42 42
28 29 30 31 31 31 32 32 33 34 34 34 35 35 35 36 36 37 37 37 36 37 36 37 38 38 39 40 41 40 40 41 41 42 42 42 41 42 41 41 41 40 40
27 28 29 30 30 30 30 31 32 33 33 33 34 34 35 35 36 36 36 36 36 36 37 37 38 38 39 40 40 39 40 40 40 41 40 39 39 39 39 38 38 38 38
26 28 28 28 29 29 30 31 31 32 32 33 34 34 34 34 35 35 35 35 35 35 35 36 37 38 39 38 38 40 40 39 38 38 38 38 38 38 37 36 36 36 36
26 27 28 28 28 29 30 30 31 31 31 32 32 33 33 34 34 35 35 35 35 35 35 36 36 37 38 38 38 39 39 38 37 37 36 36 36 36 35 34 34 35 35
26 27 27 27 28 28 29 31 31 31 32 33 33 34 34 34 34 35 36 36 36 36 35 35 35 36 37 37 38 38 38 38 37 35 35 35 36 35 34 34 34 34 34
26 26 28 28 28 29 30 30 31 31 32 33 33 34 35 35 35 35 36 36 36 36 36 35 35 35 35 36 36 37 37 36 36 35 34 34 34 34 33 33 33 33 33
25 26 27 27 28 29 30 31 31 31 32 33 34 34 35 34 34 35 35 35 35 35 35 35 35 35 34 35 36 36 35 35 35 34 33 32 32 31 31 32 32 32 32
26 26 26 27 27 28 30 31 32 33 34 34 34 35 35 34 33 33 32 32 33 33 33 33 33 34 34 34 34 33 33 33 33 31 31 30 29 29 30 31 31 30 30
26 27 27 27 27 28 29 30 31 33 33 34 34 34 34 33 32 32 31 31 31 31 31 32 33 33 32 32 32 31 31 30 30 30 29 28 29 29 29 29 29 29 29
Wind_Direction
247 247 245 243 243 242 242 241 241 242 242 242 244 245 248 248 247 249 250 250 251 252 253 254 255 257 260 261 262 264 267 271 274 276 279 282 284 286 288 289 289 290 291
246 246 245 243 241 241 240 241 241 241 241 241 243 245 247 248 248 249 251 252 253 253 254 254 255 257 260 262 263 265 267 270 274 277 279 281 283 285 287 288 289 290 291
245 244 245 243 240 239 239 239 239 239 239 241 243 244 246 247 248 249 251 253 254 254 254 255 256 258 262 263 264 265 267 270 273 277 280 281 282 284 286 288 290 290 290
246 245 243 241 239 238 239 238 238 238 239 241 243 244 246 247 248 250 251 253 254 256 257 256 257 259 263 264 265 266 268 271 274 277 279 282 284 286 286 287 289 290 290
246 243 241 240 238 238 238 238 238 238 238 241 243 244 246 247 248 249 251 252 253 256 258 260 261 261 264 266 266 267 269 272 274 276 279 281 284 285 287 287 289 289 289
245 242 240 239 239 237 236 237 237 237 238 241 244 245 246 247 249 250 251 252 255 258 259 261 261 262 265 267 268 268 271 273 274 276 278 281 284 285 286 287 288 289 289
246 244 240 239 238 237 237 237 239 238 239 242 244 246 247 248 250 251 251 252 255 257 258 261 261 265 267 268 269 270 271 272 274 276 277 280 283 285 287 288 290 290 289
248 246 242 239 238 237 238 240 240 240 242 244 245 248 248 248 249 251 251 252 255 258 260 261 263 265 266 268 270 272 273 273 275 276 277 279 281 284 286 288 289 289 289
247 246 242 239 238 239 240 243 243 244 244 245 247 248 250 249 250 252 253 254 256 258 259 261 263 264 267 269 272 274 274 274 275 277 278 279 281 284 286 287 288 289 289
248 247 244 241 240 241 242 244 246 247 247 246 248 250 252 252 253 254 254 255 257 257 260 262 264 265 267 270 273 274 274 274 275 276 278 280 282 285 286 286 287 288 288
247 248 245 244 244 244 245 247 247 249 249 250 252 252 253 253 253 255 255 257 259 260 261 264 267 268 269 271 273 274 275 275 276 278 279 280 283 285 286 286 287 288 288
247 248 248 246 246 246 248 250 250 251 252 253 255 255 255 255 255 254 256 259 261 262 263 266 268 269 270 271 273 275 276 277 277 278 278 279 281 284 285 286 286 287 288
249 247 249 249 248 249 250 252 253 255 256 256 256 257 256 257 256 257 259 261 262 264 266 267 268 270 271 271 271 273 275 275 276 277 278 280 281 282 285 286 286 286 287
252 251 250 251 251 252 253 255 255 256 256 257 256 257 259 259 259 258 260 262 264 265 266 267 269 271 272 273 271 271 273 274 275 276 278 279 280 282 284 285 285 286 286
254 253 252 254 254 254 255 256 256 257 257 258 258 258 258 259 261 261 262 263 265 266 267 268 269 271 272 273 272 271 272 273 274 276 278 279 280 282 283 283 284 285 285
255 254 254 255 255 254 254 256 256 256 257 258 259 258 259 261 261 262 263 264 265 266 268 270 270 271 271 272 273 272 272 273 274 276 277 279 280 280 281 282 283 284 285
256 256 256 257 256 256 256 257 256 256 256 256 257 258 260 261 262 263 265 266 265 267 268 269 270 271 271 272 273 275 274 274 275 276 277 278 279 280 280 281 281 283 285
259 259 259 258 259 259 258 259 258 258 259 259 259 260 261 263 263 263 264 266 266 267 268 269 271 271 271 272 274 275 276 276 276 276 277 278 279 280 279 279 281 283 285
262 263 262 261 261 261 261 263 262 262 262 262 262 263 264 265 264 264 264 265 267 268 269 269 270 272 272 273 275 275 277 279 278 277 277 278 279 279 278 279 281 283 285
264 264 265 264 263 264 265 266 265 265 264 263 263 264 265 265 265 264 265 266 267 269 270 270 270 272 272 274 275 277 280 280 279 279 278 278 277 278 277 277 280 284 287
266 266 268 266 265 266 265 267 268 267 265 264 265 264 263 265 267 266 267 268 270 271 271 270 271 272 272 273 276 279 279 280 280 280 279 278 278 277 277 278 281 285 288
270 270 267 266 266 267 268 269 270 268 266 265 265 265 265 266 268 270 269 269 270 271 270 270 271 273 273 274 276 278 279 280 280 279 278 277 277 277 277 280 283 286 289
271 272 270 267 266 266 268 269 269 269 268 267 267 267 267 267 268 270 270 269 269 271 269 269 270 271 273 275 277 279 279 280 279 279 277 277 278 277 277 280 283 286 288
274 275 273 268 267 267 267 268 269 269 269 268 268 268 268 268 270 271 270 269 269 270 270 269 271 272 274 276 278 278 278 278 277 278 276 277 278 278 279 282 284 285 287
274 274 274 271 269 268 267 267 269 270 270 269 268 268 268 268 269 270 269 269 270 271 270 270 271 272 274 276 277 277 277 276 276 277 276 276 277 279 280 283 285 287 290
272 273 274 272 271 271 271 270 270 269 269 269 268 269 269 268 269 268 267 267 269 271 270 269 271 274 275 275 276 275 275 275 276 277 277 277 279 280 283 286 286 289 291
Height
5688 5692 5696 5700 5705 5709 5714 5719 5724 5728 5732 5735 5739 5742 5745 5747 5749 5752 5754 5756 5759 5761 5763 5765 5767 5770 5771 5772 5773 5775 5776 5776 5776 5777 5776 5776 5775 5773 5772 5770 5768 5766 5764
5677 5681 5685 5689 5694 5698 5703 5709 5714 5718 5722 5726 5730 5734 5736 5739 5742 5744 5747 5749 5751 5753 5755 5757 5759 5762 5763 5764 5765 5766 5767 5768 5767 5768 5767 5767 5767 5765 5763 5761 5759 5757 5755
5667 5671 5675 5678 5683 5688 5694 5699 5704 5708 5713 5717 5721 5724 5727 5730 5733 5736 5739 5741 5743 5745 5747 5749 5751 5753 5754 5755 5756 5757 5758 5759 5758 5758 5758 5757 5757 5757 5756 5753 5751 5748 5746
5658 5662 5665 5669 5674 5679 5684 5689 5695 5700 5704 5708 5711 5715 5718 5722 5725 5728 5731 5733 5735 5737 5739 5741 5743 5745 5745 5746 5747 5748 5749 5749 5749 5749 5748 5747 5746 5745 5746 5745 5742 5739 5736
5650 5653 5657 5661 5665 5669 5675 5681 5686 5690 5695 5699 5703 5707 5710 5713 5716 5719 5722 5724 5726 5728 5730 5732 5734 5735 5736 5737 5737 5738 5739 5739 5739 5739 5739 5737 5736 5734 5733 5733 5732 5729 5726
5642 5646 5650 5654 5657 5662 5667 5672 5677 5681 5685 5690 5694 5698 5701 5704 5707 5710 5712 5715 5718 5720 5722 5723 5724 5726 5727 5727 5728 5728 5729 5729 5729 5729 5728 5727 5726 5725 5723 5721 5720 5719 5716
5636 5639 5643 5647 5651 5655 5660 5665 5669 5673 5677 5681 5685 5689 5692 5695 5698 5700 5703 5706 5709 5711 5713 5714 5715 5716 5717 5717 5718 5718 5718 5718 5718 5718 5718 5717 5715 5714 5712 5710 5708 5707 5705
5631 5634 5637 5641 5646 5650 5653 5657 5661 5665 5669 5672 5676 5679 5683 5686 5689 5691 5694 5697 5699 5701 5703 5704 5705 5706 5707 5707 5707 5707 5707 5708 5708 5707 5707 5706 5705 5703 5701 5699 5697 5695 5694
5624 5628 5631 5635 5639 5643 5647 5650 5653 5657 5660 5664 5667 5670 5673 5676 5679 5682 5685 5687 5689 5692 5693 5694 5695 5696 5696 5696 5696 5696 5696 5696 5696 5696 5695 5695 5693 5692 5690 5688 5686 5684 5682
5619 5623 5626 5629 5633 5636 5640 5643 5646 5649 5652 5656 5658 5661 5664 5667 5670 5672 5675 5677 5679 5681 5683 5684 5684 5685 5686 5685 5685 5685 5685 5685 5685 5685 5684 5683 5682 5681 5679 5677 5674 5672 5670
5614 5617 5620 5623 5626 5629 5632 5635 5638 5641 5644 5646 5649 5651 5654 5656 5659 5662 5665 5667 5668 5670 5672 5674 5674 5674 5675 5675 5675 5675 5674 5674 5673 5673 5672 5672 5671 5670 5667 5665 5663 5660 5658
5609 5612 5614 5616 5619 5622 5625 5628 5630 5632 5635 5637 5639 5642 5644 5647 5649 5652 5655 5656 5658 5660 5661 5662 5663 5663 5663 5663 5663 5663 5663 5662 5662 5662 5661 5661 5660 5658 5656 5653 5651 5649 5646
5603 5605 5607 5610 5612 5614 5617 5620 5622 5624 5626 5628 5630 5632 5634 5636 5639 5642 5644 5646 5647 5649 5650 5651 5652 5652 5653 5652 5652 5652 5652 5651 5651 5651 5650 5649 5648 5646 5644 5642 5639 5637 5635
5597 5599 5601 5602 5604 5607 5609 5611 5613 5615 5617 5619 5621 5623 5624 5627 5629 5631 5633 5635 5637 5638 5639 5640 5641 5641 5641 5641 5641 5641 5641 5640 5640 5640 5639 5638 5636 5634 5632 5630 5628 5625 5623
5590 5592 5594 5595 5597 5599 5601 5603 5604 5606 5608 5609 5611 5613 5615 5617 5619 5621 5622 5624 5626 5627 5629 5629 5630 5630 5630 5630 5630 5630 5630 5629 5629 5628 5627 5626 5624 5623 5621 5618 5616 5614 5612
5583 5584 5586 5587 5589 5591 5593 5594 5596 5597 5599 5600 5602 5604 5605 5607 5609 5610 5613 5614 5615 5616 5618 5619 5619 5619 5619 5619 5619 5619 5618 5618 5617 5617 5616 5614 5613 5611 5609 5606 5604 5602 5600
5576 5577 5578 5579 5581 5582 5584 5585 5587 5588 5590 5591 5593 5595 5596 5598 5599 5601 5603 5604 5605 5606 5607 5608 5608 5608 5608 5608 5607 5607 5607 5606 5605 5605 5604 5603 5601 5599 5597 5595 5593 5591 5588
5568 5569 5570 5571 5572 5573 5575 5576 5578 5579 5581 5582 5584 5586 5587 5588 5590 5591 5593 5594 5595 5596 5597 5597 5597 5597 5597 5596 5596 5596 5596 5595 5594 5593 5592 5591 5589 5587 5586 5584 5582 5580 5578
5561 5562 5562 5563 5564 5566 5567 5568 5569 5570 5572 5573 5574 5576 5578 5579 5580 5581 5582 5584 5585 5586 5586 5586 5586 5586 5585 5585 5585 5584 5584 5584 5582 5581 5580 5579 5577 5576 5575 5574 5572 5570 5568
5554 5554 5555 5556 5557 5558 5558 5560 5561 5561 5562 5564 5565 5566 5568 5569 5570 5571 5572 5573 5574 5575 5576 5576 5576 5575 5575 5574 5574 5573 5573 5572 5572 5571 5570 5568 5567 5565 5564 5563 5562 5561 5559
5547 5547 5547 5548 5549 5549 5551 5551 5552 5553 5554 5555 5556 5557 5558 5559 5560 5561 5562 5563 5564 5565 5566 5566 5566 5565 5564 5564 5563 5562 5562 5561 5560 5559 5559 5558 5556 5556 5555 5553 5552 5550 5548
5539 5539 5540 5540 5541 5542 5542 5543 5544 5545 5545 5546 5547 5548 5549 5549 5550 5551 5552 5553 5554 5554 5555 5555 5555 5554 5554 5553 5553 5552 5551 5550 5549 5549 5548 5547 5547 5545 5545 5544 5543 5541 5539
5532 5532 5532 5532 5533 5533 5534 5535 5535 5536 5536 5537 5537 5538 5539 5539 5540 5541 5542 5542 5543 5543 5544 5544 5544 5544 5544 5543 5542 5541 5540 5539 5539 5538 5538 5538 5537 5536 5535 5534 5533 5531 5529
5524 5524 5524 5524 5524 5524 5525 5526 5526 5526 5527 5528 5528 5528 5529 5529 5530 5530 5531 5531 5532 5533 5533 5533 5534 5534 5533 5533 5532 5531 5530 5529 5529 5529 5528 5528 5528 5527 5526 5525 5524 5522 5520
5517 5516 5516 5516 5516 5515 5516 5516 5516 5516 5517 5518 5518 5518 5519 5519 5520 5520 5520 5521 5522 5522 5523 5523 5523 5523 5523 5523 5522 5521 5521 5520 5520 5520 5520 5519 5519 5519 5518 5517 5516 5514 5512
5509 5509 5508 5508 5507 5507 5507 5506 5506 5507 5507 5507 5508 5508 5509 5509 5510 5510 5511 5511 5512 5512 5512 5513 5513 5513 5513 5513 5512 5512 5512 5511 5511 5511 5511 5511 5511 5510 5510 5509 5507 5506 5504